Time,TemperatureF,DewpointF,PressureIn,WindDirection,WindDirectionDegrees,WindSpeedMPH,WindSpeedGustMPH,Humidity,HourlyPrecipIn,Conditions,Clouds,dailyrainin,SoftwareType,DateUTC
2013-08-17 00:00:00,49.0,47.0,29.63,NNE,23,2.0,4.0,94,0.00,,,0.05,,2013-08-17 08:00:00,
2013-08-17 00:42:00,49.0,47.0,29.63,NNE,23,2.0,4.0,94,0.00,,,0.05,,2013-08-17 08:42:00,
2013-08-17 00:52:00,49.0,47.0,29.63,NNE,23,2.0,4.0,94,0.00,,,0.05,,2013-08-17 08:52:00,
2013-08-17 01:00:00,50.0,47.0,29.63,North,11,3.0,6.0,91,0.00,,,-99.99,,2013-08-17 09:00:00,
2013-08-17 01:43:00,50.0,47.0,29.63,North,11,3.0,6.0,91,0.00,,,-99.99,,2013-08-17 09:43:00,
2013-08-17 01:53:00,50.0,47.0,29.63,North,11,3.0,6.0,91,0.00,,,-99.99,,2013-08-17 09:53:00,
2013-08-17 02:00:00,50.0,47.0,29.64,NNE,21,3.0,6.0,90,0.00,,,0.04,,2013-08-17 10:00:00,
2013-08-17 02:42:00,50.0,47.0,29.64,NNE,21,3.0,6.0,90,0.00,,,0.04,,2013-08-17 10:42:00,
2013-08-17 02:52:00,50.0,47.0,29.64,NNE,21,3.0,6.0,90,0.00,,,0.04,,2013-08-17 10:52:00,
2013-08-17 03:00:00,50.0,47.0,29.63,North,6,4.0,8.0,90,0.00,,,0.04,,2013-08-17 11:00:00,
2013-08-17 03:42:00,50.0,47.0,29.63,North,6,4.0,8.0,90,0.00,,,0.04,,2013-08-17 11:42:00,
2013-08-17 03:52:00,50.0,47.0,29.63,North,6,4.0,8.0,90,0.00,,,0.04,,2013-08-17 11:52:00,
2013-08-17 04:00:00,50.0,47.0,29.62,North,11,3.0,7.0,89,0.00,,,0.04,,2013-08-17 12:00:00,
2013-08-17 04:42:00,50.0,47.0,29.62,North,11,3.0,7.0,89,0.00,,,0.04,,2013-08-17 12:42:00,
2013-08-17 04:52:00,50.0,47.0,29.62,North,11,3.0,7.0,89,0.00,,,0.04,,2013-08-17 12:52:00,
2013-08-17 05:00:00,50.0,46.0,29.61,North,360,4.0,7.0,87,0.01,,,0.05,,2013-08-17 13:00:00,
2013-08-17 05:42:00,50.0,46.0,29.61,North,360,4.0,7.0,87,0.01,,,0.05,,2013-08-17 13:42:00,
2013-08-17 05:52:00,50.0,46.0,29.61,North,360,4.0,7.0,87,0.01,,,0.05,,2013-08-17 13:52:00,
2013-08-17 06:00:00,51.0,46.0,29.61,North,10,4.0,10.0,84,0.00,,,0.05,,2013-08-17 14:00:00,
2013-08-17 06:42:00,51.0,46.0,29.61,North,10,4.0,10.0,84,0.00,,,0.05,,2013-08-17 14:42:00,
2013-08-17 06:52:00,51.0,46.0,29.61,North,10,4.0,10.0,84,0.00,,,0.05,,2013-08-17 14:52:00,
2013-08-17 07:00:00,52.0,46.0,29.61,North,360,5.0,10.0,80,0.00,,,0.05,,2013-08-17 15:00:00,
2013-08-17 07:44:00,52.0,46.0,29.61,North,360,5.0,10.0,80,0.00,,,0.05,,2013-08-17 15:44:00,
2013-08-17 07:53:00,52.0,46.0,29.61,North,360,5.0,10.0,80,0.00,,,0.05,,2013-08-17 15:53:00,
2013-08-17 08:00:00,54.0,47.0,29.61,NNE,19,3.0,10.0,77,0.00,,,0.05,,2013-08-17 16:00:00,
2013-08-17 08:42:00,54.0,47.0,29.61,NNE,19,3.0,10.0,77,0.00,,,0.05,,2013-08-17 16:42:00,
2013-08-17 08:53:00,54.0,47.0,29.61,NNE,19,3.0,10.0,77,0.00,,,0.05,,2013-08-17 16:53:00,
2013-08-17 09:00:00,55.0,47.0,29.61,NNE,19,4.0,8.0,73,0.00,,,0.05,,2013-08-17 17:00:00,
2013-08-17 09:42:00,55.0,47.0,29.61,NNE,19,4.0,8.0,73,0.00,,,0.05,,2013-08-17 17:42:00,
2013-08-17 09:52:00,55.0,47.0,29.61,NNE,19,4.0,8.0,73,0.00,,,0.05,,2013-08-17 17:52:00,
2013-08-17 10:00:00,59.0,47.0,29.61,NE,50,2.0,8.0,63,0.00,,,0.05,,2013-08-17 18:00:00,
2013-08-17 10:42:00,59.0,47.0,29.61,NE,50,2.0,8.0,63,0.00,,,0.05,,2013-08-17 18:42:00,
2013-08-17 10:52:00,59.0,47.0,29.61,NE,50,2.0,8.0,63,0.00,,,0.05,,2013-08-17 18:52:00,
2013-08-17 11:00:00,61.0,46.0,29.59,ENE,68,2.0,5.0,57,0.00,,,0.05,,2013-08-17 19:00:00,
2013-08-17 11:42:00,61.0,46.0,29.59,ENE,68,2.0,5.0,57,0.00,,,0.05,,2013-08-17 19:42:00,
2013-08-17 11:52:00,61.0,46.0,29.59,ENE,68,2.0,5.0,57,0.00,,,0.05,,2013-08-17 19:52:00,
2013-08-17 12:00:00,64.0,50.0,29.59,SSW,193,1.0,4.0,59,0.00,,,0.02,,2013-08-17 20:00:00,
2013-08-17 12:42:00,64.0,50.0,29.59,SSW,193,1.0,4.0,59,0.00,,,0.02,,2013-08-17 20:42:00,
2013-08-17 12:52:00,64.0,50.0,29.59,SSW,193,1.0,4.0,59,0.00,,,0.02,,2013-08-17 20:52:00,
2013-08-17 13:00:00,61.0,50.0,29.59,West,262,4.0,8.0,66,0.00,,,0.01,,2013-08-17 21:00:00,
2013-08-17 13:42:00,61.0,50.0,29.59,West,262,4.0,8.0,66,0.00,,,0.01,,2013-08-17 21:42:00,
2013-08-17 13:53:00,61.0,50.0,29.59,West,262,4.0,8.0,66,0.00,,,0.01,,2013-08-17 21:53:00,
2013-08-17 14:00:00,60.0,51.0,29.58,West,266,5.0,10.0,72,0.00,,,0.01,,2013-08-17 22:00:00,
2013-08-17 14:42:00,60.0,51.0,29.58,West,266,5.0,10.0,72,0.00,,,0.01,,2013-08-17 22:42:00,
2013-08-17 14:52:00,60.0,51.0,29.58,West,266,5.0,10.0,72,0.00,,,0.01,,2013-08-17 22:52:00,
2013-08-17 15:00:00,62.0,51.0,29.57,West,263,5.0,10.0,68,0.00,,,0.01,,2013-08-17 23:00:00,
2013-08-17 15:42:00,62.0,51.0,29.57,West,263,5.0,10.0,68,0.00,,,0.01,,2013-08-17 23:42:00,
2013-08-17 15:52:00,62.0,51.0,29.57,West,263,5.0,10.0,68,0.00,,,0.01,,2013-08-17 23:52:00,
2013-08-17 16:00:00,63.0,52.0,29.56,West,274,5.0,12.0,68,0.00,,,0.01,,2013-08-18 00:00:00,
2013-08-17 16:42:00,63.0,52.0,29.56,West,274,5.0,12.0,68,0.00,,,0.01,,2013-08-18 00:42:00,
2013-08-17 16:52:00,63.0,52.0,29.56,West,274,5.0,12.0,68,0.00,,,0.01,,2013-08-18 00:52:00,
2013-08-17 17:00:00,64.0,51.0,29.55,WNW,283,7.0,15.0,62,0.00,,,0.01,,2013-08-18 01:00:00,
2013-08-17 17:42:00,64.0,51.0,29.55,WNW,283,7.0,15.0,62,0.00,,,0.01,,2013-08-18 01:42:00,
2013-08-17 17:52:00,64.0,51.0,29.55,WNW,283,7.0,15.0,62,0.00,,,0.01,,2013-08-18 01:52:00,
2013-08-17 18:00:00,59.0,52.0,29.54,West,267,7.0,15.0,76,0.00,,,0.01,,2013-08-18 02:00:00,
2013-08-17 18:42:00,59.0,52.0,29.54,West,267,7.0,15.0,76,0.00,,,0.01,,2013-08-18 02:42:00,
2013-08-17 18:52:00,59.0,52.0,29.54,West,267,7.0,15.0,76,0.00,,,0.01,,2013-08-18 02:52:00,
2013-08-17 19:00:00,-999.0,-99.9,29.53,West,278,5.0,13.0,-999,0.00,,,0.01,,2013-08-18 03:00:00,
2013-08-17 19:43:00,56.0,51.0,29.53,West,278,5.0,13.0,84,0.00,,,0.01,,2013-08-18 03:43:00,
2013-08-17 19:53:00,56.0,51.0,29.53,West,278,5.0,13.0,84,0.00,,,0.01,,2013-08-18 03:53:00,
2013-08-17 20:00:00,55.0,50.0,29.52,West,271,4.0,8.0,84,0.00,,,0.01,,2013-08-18 04:00:00,
2013-08-17 20:42:00,55.0,50.0,29.52,West,271,4.0,8.0,84,0.00,,,0.01,,2013-08-18 04:42:00,
2013-08-17 20:53:00,55.0,50.0,29.52,West,271,4.0,8.0,84,0.00,,,0.01,,2013-08-18 04:53:00,
2013-08-17 21:00:00,54.0,51.0,29.52,West,272,4.0,7.0,88,0.00,,,0.01,,2013-08-18 05:00:00,
2013-08-17 21:42:00,54.0,51.0,29.52,West,272,4.0,7.0,88,0.00,,,0.01,,2013-08-18 05:42:00,
2013-08-17 21:52:00,54.0,51.0,29.52,West,272,4.0,7.0,88,0.00,,,0.01,,2013-08-18 05:52:00,
2013-08-17 22:00:00,51.0,49.0,29.52,West,278,4.0,8.0,92,0.00,,,0.01,,2013-08-18 06:00:00,
2013-08-17 22:42:00,51.0,49.0,29.52,West,278,4.0,8.0,92,0.00,,,0.01,,2013-08-18 06:42:00,
2013-08-17 22:52:00,51.0,49.0,29.52,West,278,4.0,8.0,92,0.00,,,0.01,,2013-08-18 06:52:00,
2013-08-17 23:00:00,49.0,48.0,29.52,WNW,283,4.0,6.0,96,0.00,,,0.01,,2013-08-18 07:00:00,
2013-08-17 23:42:00,49.0,48.0,29.52,WNW,283,4.0,6.0,96,0.00,,,0.01,,2013-08-18 07:42:00,
2013-08-17 23:52:00,49.0,48.0,29.52,WNW,283,4.0,6.0,96,0.00,,,0.01,,2013-08-18 07:52:00,